Tracking 19709 objects as of 21-Jun-2019
HD Live streaming from Space Station
objects crossing your sky now

FENGYUN 1C DEB

Track FENGYUN 1C DEB now!
10-day predictions


NORAD ID: 30400
Int'l Code: 1999-025ADP
Perigee: 735.0 km
Apogee: 1,147.0 km
Inclination: 99.2 °
Period: 103.7 minutes
Semi major axis: 7312 km
RCS: 0.0229 m2 (small)
Launch date: May 10, 1999
Source: People's Republic of China (PRC)
Launch site: Taiyaun Space Center, China (TSC)

Note: This is SATELLITE DEBRIS
aabbcc
Your satellite tracking list
Your tracking list is empty




NASA's NSSDC Master Catalog

Two Line Element Set (TLE):
1 30400U 99025ADP 19171.25016125  .00000232  00000-0  16886-3 0  9992
2 30400  99.1603  84.5942 0281674 316.0793 199.4006 13.88507426625383
Source of the keplerian elements: AFSPC